Location: Newark
(41.7772°N, 74.7403°W)
Time: 21:44:57
(UTC+00:00)

Transit 2A - All Passes

Search period start: 25 May 2020 00:00
Search period end: 04 June 2020 00:00
Orbit: 594 x 965 km, 66.7° (Epoch: 23 May)

Date Brightness Start Highest point End Pass type
(mag) Time Alt. Az. Time Alt. Az. Time Alt. Az.
25 May - 02:18:50 10° N 02:21:32 13° NNE 02:24:16 10° ENE visible
25 May - 04:00:12 10° NNW 04:06:12 50° NE 04:12:23 10° SE visible
25 May - 05:43:52 10° NW 05:49:16 31° WSW 05:54:44 10° SSW visible
25 May - 18:41:19 10° S 18:45:31 32° ESE 18:50:09 10° NE daylight
25 May - 20:24:08 10° WSW 20:28:38 35° NW 20:33:36 10° NNE daylight
26 May - 01:46:21 10° NNE 01:46:54 10° NNE 01:47:26 10° NE visible
26 May - 03:26:13 10° NNW 03:31:55 38° NE 03:37:47 10° ESE visible
26 May - 05:09:24 10° NW 05:15:15 44° WSW 05:21:13 10° S visible
26 May - 18:08:01 10° SSE 18:11:37 21° ESE 18:15:29 10° ENE daylight
26 May - 19:49:36 10° SW 19:54:19 49° NW 19:59:37 10° NNE daylight
26 May - 21:37:37 10° NW 21:39:04 11° NNW 21:40:34 10° NNW daylight
27 May - 02:52:17 10° NNW 02:57:34 29° NE 03:03:00 10° ESE visible
27 May - 04:35:04 10° NW 04:41:12 61° WSW 04:47:27 10° SSE visible
27 May - 17:35:18 10° SE 17:37:46 14° ESE 17:40:21 10° ENE daylight
27 May - 19:15:16 10° SW 19:20:06 71° WNW 19:25:32 10° NNE daylight
27 May - 21:01:41 10° WNW 21:04:28 14° NW 21:07:24 10° N daylight
28 May - 02:18:25 10° N 02:23:08 22° NE 02:27:59 10° E visible
28 May - 04:00:51 10° NNW 04:07:06 84° WSW 04:13:29 10° SSE visible
28 May - 05:46:27 10° WNW 05:49:30 14° WSW 05:52:35 10° SW visible
28 May - 18:41:09 10° SSW 18:45:57 79° ESE 18:51:23 10° NNE daylight
28 May - 20:26:22 10° W 20:29:56 19° NW 20:33:46 10° N daylight
29 May - 01:44:40 10° N 01:48:39 17° NE 01:52:44 10° E visible
29 May - 03:26:42 10° NNW 03:32:56 73° ENE 03:39:19 10° SE visible
29 May - 05:11:10 10° WNW 05:15:38 21° WSW 05:20:08 10° SSW visible
29 May - 18:07:12 10° S 18:11:53 53° ESE 18:17:07 10° NE daylight
29 May - 19:51:22 10° W 19:55:29 24° NW 19:59:58 10° N daylight
30 May - 01:11:04 10° N 01:14:05 14° NE 01:17:09 10° ENE visible
30 May - 02:52:37 10° NNW 02:58:42 54° NE 03:04:56 10° SE visible
30 May - 04:36:25 10° NW 04:41:42 29° WSW 04:47:02 10° SSW visible
30 May - 17:33:32 10° S 17:37:53 35° ESE 17:42:43 10° NE daylight
30 May - 19:16:35 10° WSW 19:21:06 33° NW 19:26:04 10° NNE daylight
31 May - 00:38:00 10° NNE 00:39:28 11° NNE 00:40:56 10° NE daylight
31 May - 02:18:36 10° NNW 02:24:25 40° NE 02:30:23 10° ESE visible
31 May - 04:01:54 10° NW 04:07:43 41° WSW 04:13:35 10° S visible
31 May - 17:00:09 10° SSE 17:03:58 24° ESE 17:08:07 10° NE daylight
31 May - 18:42:01 10° SW 18:46:46 46° NW 18:52:05 10° NNE daylight
31 May - 20:30:22 10° NW 20:31:35 11° NNW 20:32:51 10° NNW daylight
01 Jun - 01:44:39 10° NNW 01:50:05 31° NE 01:55:38 10° ESE visible
01 Jun - 03:27:32 10° NW 03:33:40 57° WSW 03:39:52 10° S visible
01 Jun - 16:27:14 10° SE 16:30:07 16° ESE 16:33:08 10° ENE daylight
01 Jun - 18:07:39 10° SW 18:12:31 66° WNW 18:18:01 10° NNE daylight
01 Jun - 19:54:18 10° WNW 19:56:59 14° NW 19:59:48 10° N daylight
02 Jun - 01:10:46 10° N 01:15:40 24° NE 01:20:41 10° E visible
02 Jun - 02:53:18 10° NNW 02:59:34 79° WSW 03:05:56 10° SSE visible
02 Jun - 04:39:17 10° WNW 04:41:55 13° W 04:44:33 10° SW visible
02 Jun - 17:33:28 10° SSW 17:38:21 86° ESE 17:43:52 10° NNE daylight
02 Jun - 19:18:55 10° W 19:22:27 18° NW 19:26:12 10° N daylight
03 Jun - 00:36:59 10° N 00:41:11 19° NE 00:45:29 10° E daylight
03 Jun - 02:19:08 10° NNW 02:25:25 78° ENE 02:31:48 10° SE visible
03 Jun - 04:03:48 10° WNW 04:08:03 19° WSW 04:12:18 10° SSW visible
03 Jun - 16:59:30 10° SSW 17:04:16 58° ESE 17:09:38 10° NE daylight
03 Jun - 18:43:52 10° W 18:47:58 23° NW 18:52:25 10° N daylight
